Location: Asheville, NC
(35.6000°N, 82.5500°W)
Time: 10:38:28
(UTC-04:00)

Vanguard 2 - Pass Details

Date: 16 March 2018
Orbit: 553 x 2939 km, 32.9° (Epoch: 18 June)

Event Time Altitude Azimuth Distance (km) Brightness Sun altitude
Rises 10:40:50 0° 233° (SW) 4,933 11.5 34.3°
Reaches altitude 10° 10:43:41 10° 229° (SW) 4,220 11.2 34.8°
Maximum altitude 10:55:44 59° 153° (SSE) 2,786 11.7 36.8°
Drops below altitude 10° 11:12:44 10° 81° (E) 5,763 12.6 39.6°
Sets 11:17:23 0° 78° (ENE) 6,784 12.8 40.3°
